Date String (YYYY-MM-DD hh:mm:ss) UTC,Instrument flags,Ambient pressure (hPa),Sample flow (lpm),Bypass flow (lpm),Sample temperature (°C),Ambient temperature (°C),ASC tube jacket temperature (°C),LED temperature (°C),Box temperature (°C),Sample RH (%),Span deviation,Mass concentration (μg/m³),Mass concentration (μg/m³),Mass concentration (μg/m³)
DateTimeUTC,F1_M11,P_M11,Q1_M11,Q2_M11,T1_M11,T2_M11,T3_M11,T4_M11,T5_M11,U1_M11,ZSPAN_M11,X0_M11,X2_M11,X1_M11
2022-11-07 09:00:00,,0826.2,5.00,0.00,22.2,20.7,00.0,31.0,24.0,12.9,0000.0,0009.48,0003.23,0002.33
2022-11-07 09:01:00,,0826.2,4.99,0.00,22.1,20.7,00.0,31.0,24.0,12.7,0000.0,0008.58,0003.21,0002.29
2022-11-07 09:02:00,,0826.2,4.99,0.00,22.1,20.7,00.0,31.0,24.0,12.6,0000.0,0008.47,0003.21,0002.27
2022-11-07 09:03:00,,0826.2,5.01,0.00,22.1,20.7,00.0,31.0,24.0,12.6,0000.0,0008.59,0003.21,0002.24
2022-11-07 09:04:00,,0826.2,5.01,0.00,22.1,20.9,00.0,31.0,24.1,12.6,0000.0,0008.75,0003.16,0002.21
2022-11-07 09:05:00,,0826.2,5.00,0.00,22.2,21.7,00.0,30.9,24.2,12.5,0000.0,0008.13,0003.12,0002.18
2022-11-07 09:06:00,,0826.1,5.01,0.00,22.3,22.1,00.0,31.0,24.4,12.4,0000.0,0008.49,0003.06,0002.14
2022-11-07 09:07:00,,0826.2,4.99,0.00,22.4,21.9,00.0,31.0,24.4,12.5,0000.0,0008.71,0003.08,0002.12
2022-11-07 09:08:00,,0826.2,4.99,0.00,22.4,21.7,00.0,31.0,24.4,12.6,0000.0,0009.03,0003.11,0002.09
2022-11-07 09:09:00,,0826.2,5.00,0.00,22.4,21.5,00.0,31.0,24.3,12.5,0000.0,0008.86,0003.00,0002.06
2022-11-07 09:10:00,,0826.2,5.00,0.00,22.4,21.3,00.0,31.0,24.3,12.5,0000.0,0009.45,0002.93,0002.05
2022-11-07 09:11:00,,0826.1,5.01,0.00,22.4,21.2,00.0,31.1,24.3,12.4,0000.0,0009.67,0002.93,0002.05
2022-11-07 09:12:00,,0826.2,5.01,0.00,22.3,21.1,00.0,31.1,24.3,12.3,0000.0,0009.89,0003.00,0002.06
2022-11-07 09:13:00,,0826.2,5.00,0.00,22.3,21.0,00.0,31.1,24.2,12.3,0000.0,0009.79,0002.95,0002.04
2022-11-07 09:14:00,,0826.2,4.99,0.00,22.3,21.0,00.0,31.1,24.2,12.4,0000.0,0010.22,0002.94,0002.02
2022-11-07 09:15:00,,0826.2,5.01,0.00,22.3,20.9,00.0,31.1,24.2,12.5,0000.0,0010.70,0002.96,0002.02
2022-11-07 09:16:00,,0826.2,5.00,0.00,22.3,20.9,00.0,31.1,24.2,12.4,0000.0,0010.88,0003.05,0001.99
2022-11-07 09:17:00,,0826.2,5.00,0.00,22.3,20.9,00.0,31.1,24.2,12.3,0000.0,0009.74,0003.10,0001.99
2022-11-07 09:18:00,,0826.2,5.00,0.00,22.3,20.9,00.0,31.1,24.2,12.5,0000.0,0009.61,0003.11,0002.00
2022-11-07 09:19:00,,0826.2,5.00,0.00,22.3,20.8,00.0,31.1,24.1,12.5,0000.0,0009.13,0003.07,0001.99
2022-11-07 09:20:00,,0826.2,5.00,0.00,22.3,20.8,00.0,31.1,24.1,12.5,0000.0,0009.22,0003.14,0002.00
2022-11-07 09:21:00,,0826.2,4.99,0.00,22.3,20.8,00.0,31.1,24.1,12.4,0000.0,0008.61,0003.18,0002.01
2022-11-07 09:22:00,,0826.1,4.99,0.00,22.2,20.8,00.0,31.1,24.1,12.4,0000.0,0008.36,0003.17,0001.99
2022-11-07 09:23:00,,0826.1,5.00,0.00,22.2,20.8,00.0,31.1,24.1,12.5,0000.0,0008.24,0003.16,0001.99
2022-11-07 09:24:00,,0826.1,5.00,0.00,22.2,20.8,00.0,31.0,24.1,12.5,0000.0,0008.81,0003.17,0001.99
2022-11-07 09:25:00,,0826.0,5.02,0.00,22.2,20.8,00.0,31.0,24.1,12.4,0000.0,0008.67,0003.16,0001.99
2022-11-07 09:26:00,,0826.0,5.01,0.00,22.2,20.7,00.0,31.0,24.0,12.3,0000.0,0008.68,0003.15,0001.98
2022-11-07 09:27:00,,0826.0,4.99,0.00,22.2,20.7,00.0,31.0,24.0,12.5,0000.0,0008.48,0003.10,0001.98
2022-11-07 09:28:00,,0826.0,4.99,0.00,22.2,20.7,00.0,31.0,24.0,12.5,0000.0,0008.44,0003.05,0001.99
2022-11-07 09:29:00,,0826.0,5.00,0.00,22.2,20.7,00.0,31.0,24.0,12.4,0000.0,0008.43,0003.02,0001.98
2022-11-07 09:30:00,,0826.0,5.01,0.00,22.2,20.7,00.0,31.0,24.0,12.4,0000.0,0008.59,0003.06,0001.98
2022-11-07 09:31:00,,0826.0,5.00,0.00,22.1,20.7,00.0,31.0,24.0,12.4,0000.0,0008.57,0003.09,0001.99
2022-11-07 09:32:00,,0826.0,4.99,0.00,22.1,20.7,00.0,31.0,24.0,12.4,0000.0,0009.34,0003.03,0001.99
2022-11-07 09:33:00,,0826.0,5.02,0.00,22.2,21.1,00.0,31.0,24.1,12.4,0000.0,0009.43,0003.05,0002.01
2022-11-07 09:34:00,,0826.0,5.01,0.00,22.2,21.9,00.0,30.9,24.3,12.3,0000.0,0009.36,0003.02,0002.01
2022-11-07 09:35:00,,0825.9,4.99,0.00,22.3,22.1,00.0,31.0,24.4,12.2,0000.0,0009.09,0003.03,0002.02
2022-11-07 09:36:00,,0826.0,5.00,0.00,22.4,21.9,00.0,31.0,24.4,12.2,0000.0,0008.76,0003.05,0002.03
2022-11-07 09:37:00,,0825.9,5.02,0.00,22.4,21.7,00.0,31.0,24.4,12.2,0000.0,0008.14,0003.12,0002.03
2022-11-07 09:38:00,,0826.0,5.01,0.00,22.4,21.5,00.0,31.0,24.3,12.2,0000.0,0008.45,0003.16,0002.04
2022-11-07 09:39:00,,0825.9,4.98,0.00,22.4,21.3,00.0,31.1,24.3,12.2,0000.0,0009.07,0003.16,0002.06
2022-11-07 09:40:00,,0825.9,5.01,0.00,22.4,21.3,00.0,31.1,24.3,12.2,0000.0,0009.38,0003.16,0002.08
2022-11-07 09:41:00,,0826.0,5.01,0.00,22.4,21.2,00.0,31.1,24.3,12.2,0000.0,0009.81,0003.14,0002.09
2022-11-07 09:42:00,,0826.0,5.00,0.00,22.3,21.1,00.0,31.1,24.2,12.2,0000.0,0009.75,0003.13,0002.09
2022-11-07 09:43:00,,0825.9,4.98,0.00,22.3,21.0,00.0,31.1,24.2,12.2,0000.0,0008.93,0003.15,0002.11
2022-11-07 09:44:00,,0826.0,5.02,0.00,22.3,21.0,00.0,31.1,24.2,12.2,0000.0,0008.78,0003.17,0002.11
2022-11-07 09:45:00,,0825.9,5.01,0.00,22.3,21.0,00.0,31.1,24.2,12.1,0000.0,0008.90,0003.17,0002.11
2022-11-07 09:46:00,,0826.0,4.98,0.00,22.3,20.9,00.0,31.1,24.2,12.2,0000.0,0008.98,0003.18,0002.11
2022-11-07 09:47:00,,0826.0,5.01,0.00,22.3,20.9,00.0,31.1,24.2,12.1,0000.0,0008.91,0003.16,0002.10
2022-11-07 09:48:00,,0825.9,5.01,0.00,22.3,20.9,00.0,31.1,24.2,12.1,0000.0,0008.89,0003.15,0002.10
2022-11-07 09:49:00,,0825.9,5.01,0.00,22.3,20.9,00.0,31.1,24.1,12.2,0000.0,0008.68,0003.14,0002.11
2022-11-07 09:50:00,,0825.9,4.99,0.00,22.3,20.8,00.0,31.1,24.1,12.3,0000.0,0008.44,0003.17,0002.11
2022-11-07 09:51:00,,0826.0,5.00,0.00,22.3,20.8,00.0,31.1,24.1,12.3,0000.0,0008.18,0003.17,0002.08
2022-11-07 09:52:00,,0825.9,5.00,0.00,22.2,20.8,00.0,31.1,24.1,12.3,0000.0,0007.84,0003.15,0002.07
2022-11-07 09:53:00,,0826.0,5.01,0.00,22.2,20.8,00.0,31.1,24.1,12.3,0000.0,0008.13,0003.13,0002.06
2022-11-07 09:54:00,,0826.0,5.01,0.00,22.2,20.8,00.0,31.0,24.1,12.3,0000.0,0009.38,0003.15,0002.06
2022-11-07 09:55:00,,0826.0,5.00,0.00,22.2,20.7,00.0,31.0,24.1,12.3,0000.0,0009.68,0003.16,0002.06
2022-11-07 09:56:00,,0826.0,4.99,0.00,22.2,20.7,00.0,31.0,24.0,12.4,0000.0,0009.58,0003.16,0002.05
2022-11-07 09:57:00,,0825.9,4.99,0.00,22.2,20.7,00.0,31.0,24.0,12.3,0000.0,0009.65,0003.19,0002.07
2022-11-07 09:58:00,,0825.9,5.00,0.00,22.2,20.7,00.0,31.0,24.0,12.3,0000.0,0009.75,0003.21,0002.07
2022-11-07 09:59:00,,0826.0,5.01,0.00,22.2,21.1,00.0,31.0,24.1,12.3,0000.0,0009.54,0003.17,0002.07
